www.pogodaiklimat.ru

Погода и климат >> Архив погоды >> Индонезия >> Tanah Merah


ПОГОДА в Tanah Merah

  • Прогноз погоды в Tanah Merah
  • Монитор погоды в Tanah Merah
  • Климат города

АРХИВ ПОГОДЫ в Tanah Merah

Время (UTC), дата Ветер
(напр.,м/с)
 
Видим.   Явления Облачность Т
(С)
Тd
(С)
f
(%)
Тe
(С)
Тes
(С)
Комфортность P
(гПа)
Po
(гПа)
Тmin
(С)
Tmax
(С)
R
(мм)
R24
(мм)
S
(см)
06 13.01 ЮВ 2 10 км 8/6 300 м
[Cu Sc Ac trans Ci sp]
+33.6 +24.2 58 +46 +49 опасность
перегрева
1004.4 1001.3
09 13.01 штиль 0 10 км зарница 8/6 330 м
[Cb cap Ac lent Ci fib]
+31.3 +24.9 69 +45 +45 опасность
перегрева
1005.8 1002.7
12 13.01 З 2 10 км зарница 8/6 330 м
[Cb cap Ac lent Ci fib]
+27.4 +26.0 92 +41 +41 опасность
перегрева
1007.9 1004.7 +34.5
15 13.01 З 1 8000 м зарница 9/6 270 м
[Cb cap Ac As Ci sp]
+26.4 +25.0 92 +38 +38 очень
душно
1008.1 1004.9
18 13.01 СЗ 1 1000 м зарница {гроза, дождь} 10/10 240 м
[Cb cap As op]
+25.2 +24.5 96 +35 +35 очень
душно
1006.7 1003.5 37
21 13.01 С 2 1000 м слабый дождь {гроза} 10/8 240 м
[Cb cap As op]
+24.6 +23.9 96 +34 +34 очень
душно
1008.7 1005.5 0.6
00 14.01 С 2 1000 м слабый дождь 10/8 240 м
[Frnb Ac As]
+24.5 +24.0 97 +34 +34 очень
душно
1010.5 1007.3 +24.1 1
03 14.01 Ю 2 7000 м в посл. час морось {дождь} 9/8 240 м
[Sc Ac lent Ci sp]
+27.9 +24.5 82 +39 +43 очень
душно
1007.8 1004.6 0.4
06 14.01 ЮЗ 3 10 км {дождь, морось} 8/6 300 м
[Cu Sc Ac trans Ci fib]
+31.0 +24.2 67 +43 +45 опасность
перегрева
1004.4 1001.3 0.4
09 14.01 штиль 0 10 км зарница 6/5 330 м
[Cb cap Ac lent Ci fib]
+29.2 +24.7 77 +42 +42 опасность
перегрева
1005.9 1002.8
12 14.01 штиль 0 10 км зарница 8/6 330 м
[Cb cap Ac lent Ci fib]
+26.9 +25.7 93 +40 +40 очень
душно
1008.0 1004.8 +31.7
15 14.01 СЗ 1 5000 м 8/6 450 м
[Cu Sc Ac lent Ci sp]
+26.0 +25.3 96 +38 +38 очень
душно
1008.0 1004.8
18 14.01 З 2 5000 м {дождь} 9/8 360 м
[Cu Sc Ac lent Ci sp]
+24.5 +23.8 96 +33 +33 очень
душно
1006.6 1003.4 1
21 14.01 СВ 1 6000 м 9/5 240 м
[Cu Sc Ac trans Ci sp]
+24.4 +23.9 97 +33 +33 очень
душно
1008.1 1004.9
00 15.01 С 2 5000 м 10/9 240 м
[Cu med, cong Ac lent]
+26.1 +24.1 89 +36 +36 очень
душно
1009.8 1006.6 +24.2 2
03 15.01 штиль 0 8000 м 9/8 270 м
[Cu Sc Ac trans Ci sp]
+31.6 +24.2 65 +44 +48 опасность
перегрева
1006.9 1003.8
06 15.01 З 2 9000 м 8/6 300 м
[Cu Sc Ac lent Ci sp]
+31.8 +23.9 63 +43 +46 опасность
перегрева
1003.3 1000.2
09 15.01 штиль 0 9000 м зарница 8/6 330 м
[Cb cap Ac lent Ci fib]
+29.8 +25.1 76 +43 +43 опасность
перегрева
1004.6 1001.5
12 15.01 штиль 0 8000 м зарница 9/8 270 м
[Cb cap Ac lent Ci sp]
+27.6 +25.8 90 +41 +41 опасность
перегрева
1006.5 1003.3 +32.6
15 15.01 Ю 2 5000 м гроза, ливневой дождь 10/8 270 м
[Cb cap Ac cuf Ci sp]
+26.0 +25.1 95 +37 +37 очень
душно
1006.5 1003.3 1
18 15.01 штиль 0 2000 м слабый дождь {гроза} 10/10 270 м
[Cb cap Ac As]
+24.8 +24.3 97 +34 +34 очень
душно
1005.2 1002.0 0.2
21 15.01 штиль 0 5000 м в посл. час дождь 10/10 180 м
[Frnb Ns]
+24.4 +23.9 97 +33 +33 очень
душно
1006.8 1003.6 1
00 16.01 штиль 0 5000 м в посл. час дождь 9/8 210 м
[Frnb Ac lent Ci sp]
+24.9 +23.7 93 +34 +36 очень
душно
1008.3 1005.1 +24.1 0.6
03 16.01 Ю 2 7000 м 8/6 270 м
[Cu Sc Ac trans Ci sp]
+27.8 +24.6 83 +39 +46 очень
душно
1006.1 1002.9
06 16.01 ЮЗ 2 8000 м 8/6 300 м
[Cb cap Ac lent Ci fib]
+28.7 +24.9 80 +41 +44 опасность
перегрева
1002.7 999.6
09 16.01 штиль 0 9000 м зарница 8/6 300 м
[Cb cap Ac lent Ci fib]
+27.3 +25.1 88 +39 +39 очень
душно
1004.6 1001.4
12 16.01 З 2 7000 м 10/8 240 м
[Cu Sc Ac As Ci sp]
+25.9 +24.1 90 +36 +36 очень
душно
1007.0 1003.8 +30.4
15 16.01 СЗ 2 7000 м 9/8 300 м
[Cu Sc Ac lent Ci sp]
+25.1 +23.9 93 +34 +34 очень
душно
1007.4 1004.2
18 16.01 С 3 6000 м зарница 10/8 240 м
[Cb cap Ac As Ci sp]
+24.9 +24.2 96 +34 +34 очень
душно
1006.2 1003.0
21 16.01 СВ 2 1000 м слабый дождь 10/8 240 м
[Sc Ac As Ci sp]
+24.2 +23.7 97 +33 +33 очень
душно
1007.4 1004.2 10
00 17.01 С 3 7000 м {дождь} 9/8 240 м
[Cu Sc Ac trans Ci sp]
+26.2 +24.2 89 +36 +38 очень
душно
1007.8 1004.6 +24.2 0.6
03 17.01 штиль 0 9000 м 9/8 240 м
[Cu Sc Ac trans Ci sp]
+30.1 +25.0 74 +43 +47 опасность
перегрева
1006.2 1003.1
06 17.01 ЮЗ 2 10 км 8/6 300 м
[Cu Sc Ac lent Ci sp]
+33.3 +25.6 64 +48 +51 опасность
перегрева
1003.7 1000.6
09 17.01 ЮЗ 2 4000 м в посл. час гроза {дождь} 9/8 240 м
[Cb cap Ac As Ci sp]
+25.2 +24.3 95 +35 +35 очень
душно
1006.2 1003.0 24
12 17.01 штиль 0 4000 м зарница {гроза, дождь} 10/8 240 м
[Cb cap Ac As Ci sp]
+25.0 +24.3 96 +35 +35 очень
душно
1008.0 1004.8 +33.9 24
15 17.01 С 2 5000 м зарница 10/8 240 м
[Cb cap Ac As Ci sp]
+25.1 +24.6 97 +35 +35 очень
душно
1008.2 1005.0
18 17.01 С 1 4000 м в посл. час дождь 10/8 240 м
[Sc Ac As Ci sp]
+24.7 +24.2 97 +34 +34 очень
душно
1006.8 1003.6 0.2
21 17.01 С 2 4000 м 10/10 180 м
[Frnb Ns]
+24.7 +24.2 97 +34 +34 очень
душно
1008.5 1005.3
00 18.01 штиль 0 6000 м 9/8 240 м
[Sc Ac cuf Ci sp]
+26.4 +24.4 89 +37 +40 очень
душно
1009.9 1006.7 +24.7 24
03 18.01 Ю 2 8000 м в посл. час дождь 8/6 240 м
[Sc Ac trans Ci fib]
+29.3 +24.6 76 +42 +48 опасность
перегрева
1007.5 1004.4 0.2
06 18.01 ЮЗ 2 10 км 8/5 300 м
[Cu Sc Ac trans Ci sp]
+31.6 +24.2 65 1005.2 1002.0
09 18.01 Ю 3 10 км 8/6 270 м
[Cb cap Ac trans Ci sp]
+25.6 +24.0 91 +35 +35 очень
душно
1007.3 1004.1
12 18.01 СВ 2 2000 м слабый дождь {гроза} 10/8 240 м
[Cb cap Ac As Ci sp]
+25.5 +24.5 94 +36 +36 очень
душно
1009.5 1006.3 +32.4 0.0
15 18.01 СВ 1 900 м дождь 10/8 240 м
[Cb cap Ac As Ci sp]
+24.9 +24.4 97 +35 +35 очень
душно
1009.2 1006.0 11
18 18.01 С 2 2000 м слабый дождь 10/8 240 м
[Sc As op]
+24.1 +23.8 98 +33 +33 очень
душно
1008.7 1005.5 1
21 18.01 СВ 2 5000 м {дождь} 10/6 240 м
[Sc Ac As]
+23.7 +23.2 97 +32 +32 очень
душно
1010.2 1007.0 0.0
00 19.01 СВ 3 5000 м в посл. час дождь 10/8 240 м
[Sc Ac As Ci sp]
+24.9 +23.7 93 +34 +35 очень
душно
1011.7 1008.5 +23.7 0.2
03 19.01 СВ 2 7000 м в посл. час дождь 10/8 240 м
[Sc Ac As Ci sp]
+27.4 +23.6 80 +37 +40 очень
душно
1009.4 1006.2 0.0
06 19.01 штиль 0 8000 м 9/8 240 м
[Cu Sc Ac As Ci sp]
+28.9 +24.2 76 +40 +42 очень
душно
1006.7 1003.6 0.0
09 19.01 В 2 8000 м 9/8 240 м
[Cb cap Ac As Ci sp]
+27.8 +25.2 86 +40 +40 очень
душно
1007.8 1004.6
12 19.01 В 1 8000 м зарница 9/8 240 м
[Cb cap Ac As Ci sp]
+26.2 +25.0 93 +37 +37 очень
душно
1009.1 1005.9 +29.2
15 19.01 штиль 0 8000 м зарница 9/8 240 м
[Cb cap Ac As Ci sp]
+25.6 +24.9 96 +36 +36 очень
душно
1008.4 1005.2
00 20.01 штиль 0 10 км 9/8 300 м
[Sc Ac lent Ci sp]
+28.0 +24.6 82 +40 +42 очень
душно
1009.0 1005.8 +24.6 0.0

 

Местоположение метеостанции Tanah Merah (Индонезия): широта -6.10 долгота 140.30 высота над уровнем моря 16 м.

В архиве по умолчанию представлена погода в Tanah Merah за последнюю неделю. Архивные данные за месяц целиком и за предыдущие месяцы, начиная с января 2011 года, Вы можете получить, выбрав интересующий диапазон дат из раскрывающегося списка и нажав кнопку "Ввод!".

Внимание! Время в таблицах - всемирное. Для получения местного времени необходимо прибавить поправку, которая в Tanah Merah равна 9 ч.

Смотрите также архив погоды в соседних городах и на ближайших метеорологических станциях:

Погода в Merauke (Индонезия) (264 км)
Погода в Wamena (Индонезия) (271 км)
Погода в Kokonao (Индонезия) (338 км)
Погода в Sentani Airport (Индонезия) (392 км)
Погода в Jayapura (Индонезия) (393 км)
Погода в Enarotali (Индонезия) (498 км)
Погода в Sarmi (Индонезия) (507 км)
Погода в Coconut Island (Квинсленд, Австралия) (535 км)
Погода в Horn Island (Квинсленд, Австралия) (544 км)
Погода в Nabire (Индонезия) (615 км)

Пояснения к столбцам:

Ветер - указаны скорость ветра в м/с - средняя за 10 мин, порывы в срок и между сроками (в фигурных скобках) и направление, откуда дует ветер: С - северный, СВ - северо-восточный, В - восточный, ЮВ - юго-восточный, Ю - южный, ЮЗ - юго-западный, З - западный, СЗ - северо-западный.
Видимость - горизонтальная дальность видимости в метрах или километрах. При видимости от 1 до 10 км при отсутствии осадков обычно наблюдается дымка, при ухудшении видимости до 1 км и менее - туман. В сухую погоду видимость может ухудшаться дымом, пылью или мглою.
Явления - указаны атмосферные явления, наблюдавшиеся в срок или в последний час перед сроком; фигурными скобками обозначены явления, наблюдавшиеся между сроками (за 1-3 часа до срока); квадратными скобками обозначены град или гололедные отложения с указанием их диаметра в мм.
Облачность - указаны через наклонную черту общая и нижняя облачность в баллах и высота нижней границы облаков в метрах; квадратными скобками обозначены формы облаков: Ci - перистые, Cs - перисто-слоистые, Cc - перисто-кучевые, Ac - высококучевые, As - высокослоистые, Sc - слоисто-кучевые, Ns - слоисто-дождевые, Cu - кучевые, Cb - кучево-дождевые. Подробнее классификацию облаков см. в Атласе облаков (PDF).
T - Температура воздуха - температура, измеренная на высоте 2 м над землей.
Td - Температура точки росы - температура, при понижении до которой содержащийся в воздухе водяной пар достигнет насыщения.
f - Относительная влажность воздуха - влажноcть воздуха, измеренная на высоте 2 м над землей.
Te - Эффективная температура - температура, которую ощущает одетый по сезону человек в тени. Характеристика душности погоды. При расчете учитывается влияние влажности воздуха и скорости ветра на теплоощущения человека.
Tes - Эффективная температура на солнце - температура, которую ощущает человек, с поправкой на солнечный нагрев. Характеристика знойности погоды. Зависит от высоты солнца над горизонтом, облачности и скорости ветра. Ночью, в пасмурную погоду, а также при ветре 12 м/с и более поправка равна нулю.
P - Атмосферное давление - приведенное к уровню моря атмосферное давление.
Po - Атмосферное давление - измеренное на уровне метеостанции атмосферное давление.
Tmin - Минимальная температура - минимум температуры воздуха на высоте 2 м над землей.
Tmax - Максимальная температура - максимум температуры воздуха на высоте 2 м над землей.
R - Количество осадков - Количество выпавших осадков за период времени, мм. При наведении курсора мыши на число - период времени, за который выпало указанное количество осадков.
R24 - Количество осадков - Количество выпавших осадков за 24 часа, мм.
S - Снежный покров - Высота снежного покрова, см. При наведении курсора мыши на число - состояние снежного покрова и степень покрытия местности в баллах.